TimeCST,TemperatureF,Dew PointF,Humidity,Sea Level PressureIn,VisibilityMPH,Wind Direction,Wind SpeedMPH,Gust SpeedMPH,PrecipitationIn,Events,Conditions,WindDirDegrees,DateUTC
12:53 AM,42.1,32.0,67,30.14,10.0,SSE,8.1,-,N/A,,Clear,150,2012-11-08 06:53:00
1:53 AM,42.1,32.0,67,30.13,10.0,SE,8.1,-,N/A,,Clear,140,2012-11-08 07:53:00
2:53 AM,42.1,32.0,67,30.12,10.0,SE,8.1,-,N/A,,Clear,140,2012-11-08 08:53:00
3:53 AM,41.0,32.0,70,30.10,10.0,SE,9.2,-,N/A,,Clear,140,2012-11-08 09:53:00
4:53 AM,41.0,32.0,70,30.11,10.0,SE,6.9,-,N/A,,Clear,130,2012-11-08 10:53:00
5:53 AM,41.0,32.0,70,30.10,10.0,SE,8.1,-,N/A,,Clear,140,2012-11-08 11:53:00
6:53 AM,42.1,32.0,67,30.10,10.0,SE,8.1,-,N/A,,Clear,140,2012-11-08 12:53:00
7:53 AM,45.0,33.1,63,30.11,10.0,SE,9.2,-,N/A,,Clear,140,2012-11-08 13:53:00
8:53 AM,50.0,35.1,57,30.11,10.0,SSE,9.2,-,N/A,,Clear,150,2012-11-08 14:53:00
9:53 AM,57.0,37.0,47,30.09,10.0,SSE,8.1,-,N/A,,Clear,150,2012-11-08 15:53:00
10:53 AM,63.0,37.0,38,30.07,10.0,South,12.7,-,N/A,,Clear,170,2012-11-08 16:53:00
11:53 AM,66.9,37.0,33,30.03,10.0,South,19.6,25.3,N/A,,Clear,180,2012-11-08 17:53:00
12:53 PM,70.0,39.0,32,29.99,10.0,South,16.1,26.5,N/A,,Clear,190,2012-11-08 18:53:00
1:53 PM,70.0,41.0,35,29.96,10.0,South,20.7,25.3,N/A,,Clear,170,2012-11-08 19:53:00
2:53 PM,71.1,43.0,36,29.94,10.0,South,13.8,-,N/A,,Clear,170,2012-11-08 20:53:00
3:53 PM,69.1,44.1,40,29.93,10.0,South,12.7,23.0,N/A,,Clear,170,2012-11-08 21:53:00
4:53 PM,66.0,43.0,43,29.92,10.0,South,13.8,-,N/A,,Clear,170,2012-11-08 22:53:00
5:53 PM,64.0,42.1,45,29.92,10.0,SSE,12.7,21.9,N/A,,Clear,160,2012-11-08 23:53:00
6:53 PM,60.1,42.1,51,29.95,10.0,South,8.1,-,N/A,,Clear,170,2012-11-09 00:53:00
7:53 PM,60.1,41.0,49,29.96,10.0,South,9.2,-,N/A,,Clear,170,2012-11-09 01:53:00
8:53 PM,57.9,39.9,51,29.96,10.0,SSE,10.4,-,N/A,,Clear,160,2012-11-09 02:53:00
9:53 PM,57.0,39.9,53,29.96,10.0,SSE,10.4,-,N/A,,Clear,160,2012-11-09 03:53:00
10:53 PM,55.9,41.0,57,29.94,10.0,SSE,10.4,-,N/A,,Clear,160,2012-11-09 04:53:00
11:53 PM,57.0,42.1,57,29.93,10.0,South,13.8,-,N/A,,Clear,170,2012-11-09 05:53:00